Regional Weather Roundup
Issued by NWS Grand Forks, ND

Home | Current Version | Previous Version | Graphics & Text | Print | Product List | Glossary On
Versions: 1 2 3 4 5 6 7 8 9 10 11 12 13 14 15 16 17 18 19 20 21 22 23 24 25 26 27 28 29 30 31 32 33 34 35 36 37 38 39 40 41 42 43 44 45 46 47 48 49 50
000
ASUS43 KFGF 292031
RWRFGF
PRAIRIE TO PINES  WEATHER ROUNDUP
NATIONAL WEATHER SERVICE EASTERN NORTH DAKOTA/GRAND FORKS ND
300 PM CDT SAT APR 29 2017

 **SATELLITE DATA USED TO AUGMENT SKY COVER AT AUTOMATED STATIONS**
 *****  WEATHER ACROSS EASTERN NORTH DAKOTA  *****

CITY           SKY/WX    TMP DP  RH WIND       PRES   REMARKS
GRAND FORKS    PTSUNNY   58  23  26 W5        30.30S
GRAND FRKS AFB FAIR      57  21  25 SE5       30.30S
DEVILS LAKE    FAIR      59  17  19 SW7       30.27S
FARGO          FAIR      58  19  22 VRB3      30.31R
WAHPETON ARPT  FAIR      54  21  28 NE5       30.33S
$$

 ***** WEATHER ACROSS CENTRAL AND WESTERN NORTH DAKOTA  *****

CITY           SKY/WX    TMP DP  RH WIND       PRES   REMARKS
BISMARCK       FAIR      61  18  18 VRB6      30.26S
MINOT          FAIR      63  25  23 SW9       30.20S
JAMESTOWN      FAIR      58  19  22 VRB6      30.27S
MINOT AFB      PTSUNNY   62  26  26 SW12G17   30.19S
GARRISON         N/A     60  22  23 W10G18    30.22R
WILLISTON      PTSUNNY   63  33  32 SW14      30.21S
DICKINSON      FAIR      57  19  22 S7        30.21S
HETTINGER      FAIR      56  19  23 VRB7      30.26S
$$

 *****  OTHER AIRPORT OBSERVATIONS IN OUR AREA  *****

CITY           SKY/WX    TMP DP  RH WIND       PRES   REMARKS
WALHALLA       NOT AVBL
GRAFTON AIRPOR FAIR      59  25  27 S8        30.31S
VALLEY CITY AR FAIR      57  19  23 VRB5      30.31S
CANDO          NOT AVBL
CAVALIER APRT  FAIR      59  27  29 S8G18     30.27S
GWINNER        CLEAR     57  19  23 MISG      30.31S
SHEYENNE NWR     N/A     58  19  22 E3        29.95S
ROLLA          FAIR      61  19  20 SW8G26    30.22R
 ***** THE ABOVE OBSERVATIONS ARE NON NWS ARE NOT QUALITY
       CONTROLLED AND MAY MIS-REPORT RAIN FOR SNOW...
$$

  *****  WEATHER ACROSS NORTHERN MINNESOTA  *****

CITY           SKY/WX    TMP DP  RH WIND       PRES   REMARKS
FLAG ISLAND    FAIR      46  16  29 SE5       30.31S
WARROAD        FAIR      48  25  40 E10       30.32S
ROSEAU         FAIR      57  28  33 NW6       30.30S
HALLOCK        FAIR      59  18  20 S9        30.29S
THF RVR FALLS  FAIR      55  14  19 VRB3      30.32R
BAUDETTE       FAIR      56  14  19 E5        30.30F
WASKISH        PTSUNNY   54  27  35 W8        30.33R
CROOKSTON      FAIR      57  21  24 NE5       30.33R
STEPHEN NDAWN    N/A     57  19  23 SE3         N/A
GREENBUSH NDAW   N/A     55  25  30 N3          N/A
$$
  *****  WEATHER ACROSS CENTRAL AND WEST MINNESOTA  *****

CITY           SKY/WX    TMP DP  RH WIND       PRES   REMARKS
FOSSTON        FAIR      57  23  26 W3        30.33R
BEMIDJI        FAIR      54  20  25 E3        30.32R
PARK RAPIDS    FAIR      56  20  24 E7        30.31R
ELBOW LAKE     FAIR      54  25  32 E5        30.32S
WADENA         FAIR      55  25  30 E6        30.32R HAZE
DETROIT LAKES  FAIR      54  23  30 N5        30.33R
MOORHEAD       FAIR      55  21  26 SE6       30.33R
FERGUS FALLS   FAIR      54  25  32 CALM      30.31S
MORRIS MN      FAIR      55  21  26 E10G17    30.31S
STAPLES        FAIR      55  18  22 E3        30.32R
$$
  *****  WEATHER ELSEWHERE ACROSS MINNESOTA  *****

CITY           SKY/WX    TMP DP  RH WIND       PRES   REMARKS
DULUTH         FAIR      47  19  33 E12       30.34R
INTRNTL FALLS  FAIR      53  16  23 N9        30.31F
ELY            FAIR      50   9  18 N3        30.33R
CLOQUET        FAIR      48  12  23 E12       30.35R
WHEATON        FAIR      54  19  26 N5        30.34S
BRAINERD       FAIR      54  20  26 NE12      30.33R
HIBBING        LGT RAIN  52  18  26 N9        30.31S
ALEXANDRIA     FAIR      53  23  31 VRB6      30.32R
SAINT CLOUD    FAIR      53  23  31 E10       30.31R
MINNEAPOLIS    CLOUDY    53  23  31 NE12      30.29R
$$

  *****  WEATHER ACROSS SOUTH DAKOTA  *****

CITY           SKY/WX    TMP DP  RH WIND       PRES   REMARKS
SIOUX FALLS    CLOUDY    53  24  32 NE20G30   30.23F
BROOKINGS      FAIR      52  20  28 NE17      30.27S
WATERTOWN      FAIR      51  23  33 E7        30.30R
HURON          FAIR      57  22  25 NE15G23   30.27S
SISSETON         N/A     56  22  26 MISG      30.30R
ABERDEEN       FAIR      58  18  21 NE12      30.30R
MITCHELL       FAIR      57  18  21 NE22G29   30.26S
PIERRE         FAIR      58  15  18 NE12      30.25S
MOBRIDGE       FAIR      61  14  16 W8        30.24F
RAPID CITY     FAIR      51  18  27 NE8       30.24F
$$

  *****  SOME WEATHER IN NEARBY STATES *****

CITY           SKY/WX    TMP DP  RH WIND       PRES   REMARKS
GLASGOW MT     FAIR      59  30  33 SW8       30.18F
GREAT FALLS MT FAIR      56  29  35 SW10      30.13F
CHEYENNE WY    CLOUDY    32  17  54 N17       30.16F WCI  21
SCOTTSBLUFF NE PTSUNNY   43  23  45 N20G25    30.22F
OMAHA NE       CLOUDY    46  38  73 NE23G39   30.00F
DES MOINES IA  LGT RAIN  44  40  85 NE22G31   30.07F
DAVENPORT IA   RAIN      41  39  93 NE18G28   30.11R FOG
CHICAGO IL     RAIN      40  36  86 NE17G26   30.13F FOG
EAU CLAIRE WI  FAIR      53  26  35 NE10      30.27R
LA CROSSE WI   FAIR      50  28  42 E8        30.26R
$$

  *****  SOME NATIONAL WEATHER *****

CITY           SKY/WX    TMP DP  RH WIND       PRES   REMARKS
LA GUARDIA NY  PTSUNNY   87  58  37 W21G29    29.95S
RALEIGH NC     PTSUNNY   87  70  56 SW15      30.14F HX  92
ATLANTA GA     PTSUNNY   85  67  54 SE13      30.10F
NEW ORLEANS LA PTSUNNY   84  74  71 SE20G36   29.89F HX  91
OKLAHOMA CITY  LGT RAIN  52  51  97 NW16      29.66F
ALBUQUERQUE NM CLOUDY    43  34  70 CALM      29.93F
SALT LAKE CITY FAIR      54  25  32 N18       30.19S
LOS ANGELES CA FAIR      79  18  10 SW14      30.00F
BOISE ID       FAIR      57  29  34 NW8       30.24F
SEATTLE WA     CLOUDY    51  41  68 S3        30.21F
$$

*** WEATHER ACROSS MANITOBA...SASKATCHEWAN AND ONTARIO ***
                ***ONTARIO***

CITY           SKY/WX    TMP DP  RH WIND       PRES   REMARKS
GERALDTON      SUNNY     46  21  36 NW5       30.32R
THUNDER BAY    SUNNY     50  18  27 E3        30.34F
SIOUX LOOKOUT  SUNNY     46  12  25 VRB2      30.33F
TORONTO        PTSUNNY   57  37  47 N13       30.16S
BIG TROUT LK   SUNNY     34  19  55 S8        30.35S
PICKLE LAKE    MOSUNNY   46  14  27 NW6       30.33R
DRYDEN         SUNNY     48   7  18 SE3       30.31F
KENORA         MOSUNNY   50   9  18 S2        30.31F
$$
                *** MANITOBA***

CITY           SKY/WX    TMP DP  RH WIND       PRES   REMARKS
BRANDON        MOSUNNY   63  30  29 SW22      30.16F
DAUPHIN        PTSUNNY   63  30  29 W10G20    30.15F
ISLAND LAKE    MOSUNNY   46  18  31 VRB2      30.31F
PILOT MOUND      N/A     61  18  18 SW12G22     N/A
THE PAS        CLOUDY    45  25  45 SE15G23   30.18S
THOMPSON       MOSUNNY   41  23  48 E5        30.27F
WINNIPEG       MOSUNNY   61  14  16 S6G18     30.25F
LYNN LAKE      SUNNY     45  19  36 S9        30.18F
CHURCHILL      PTSUNNY   16   5  62 N2        30.38F
GILLAM         PTSUNNY   37  14  38 VRB2      30.35F
$$
                ***SASKATCHEWAN***

CITY           SKY/WX    TMP DP  RH WIND       PRES   REMARKS
ESTEVAN        MOSUNNY   59  30  33 SW12G18   30.18F
KINDERSLEY     PTSUNNY   52  25  35 W8        30.10F
LLOYDMINSTER   PTSUNNY   52  30  43 S12       30.06F
PRINCE ALBERT  PTSUNNY   48  30  49 N3        30.11S
REGINA         PTSUNNY   55  27  33 SW10G18   30.18F
YORKTON        MOSUNNY   54  30  40 W20G25    30.15S
N. BATTLEFORD  PTSUNNY   54  21  28 NW6       30.11F
LA RONGE       MOSUNNY   54  21  28 SE12      30.10F
SASKATOON      PTSUNNY   55  21  26 W10       30.13S
SWIFT CURRENT  PTSUNNY   55  23  28 SW12G17   30.11F
$$
NOTE: THESE ARE AUTOMATED STATIONS WITH LIMITED QUALITY CONTROL
      "FAIR" INDICATES FEW OR NO CLOUDS BELOW 12,000 FEET WITH NO
      SIGNIFICANT WEATHER AND/OR OBSTRUCTIONS TO VISIBILITY.
      SKY/WX - SKY CONDITION AND SIGNIFICANT WEATHER.
      TMP - AIR TEMPERATURE.    DP   - DEWPOINT TEMPERATURE.
      RH  - RELATIVE HUMIDITY.  PRES - PRESSURE.
      HX  - HEAT INDEX.         WCI  - WIND CHILL INDEX.
$



USA.gov is the U.S. government's official web portal to all federal, state and local government web resources and services.